Location: Antist
(43.1184°N, 0.1270°E)
Time: 10:21:07
(UTC+00:00)

Cosmos 962 Rocket - Pass Details

Date: 19 January 2020
Orbit: 951 x 999 km, 83.0° (Epoch: 18 February)

Event Time Altitude Azimuth Distance (km) Brightness Sun altitude
Rises 18:10:56 0° 178° (S) 3,610 7.7 -13.9°
Reaches altitude 10° 18:13:25 10° 176° (S) 2,669 6.9 -14.3°
Maximum altitude 18:19:28 70° 94° (E) 1,010 4.4 -15.4°
Drops below altitude 10° 18:25:36 10° 12° (NNE) 2,699 6.6 -16.5°
Sets 18:28:07 0° 11° (N) 3,655 7.3 -16.9°
